Time,TemperatureF,DewpointF,PressureIn,WindDirection,WindDirectionDegrees,WindSpeedMPH,WindSpeedGustMPH,Humidity,HourlyPrecipIn,Conditions,Clouds,dailyrainin,SoftwareType,DateUTC
2013-05-11 00:02:00,74.8,70.3,30.06,WNW,286,0.0,0.0,86,0.00,,,0.00,Wunderground v.1.13,2013-05-11 04:02:00,
2013-05-11 00:08:00,74.7,70.2,30.06,WNW,286,0.0,0.0,86,0.00,,,0.00,Wunderground v.1.13,2013-05-11 04:08:00,
2013-05-11 00:10:00,74.6,70.1,30.06,WNW,286,0.0,0.0,86,0.00,,,0.00,Wunderground v.1.13,2013-05-11 04:10:00,
2013-05-11 00:12:00,74.6,70.1,30.06,WNW,286,0.0,0.0,86,0.00,,,0.00,Wunderground v.1.13,2013-05-11 04:12:00,
2013-05-11 00:16:00,74.5,70.0,30.06,WNW,286,0.0,0.0,86,0.00,,,0.00,Wunderground v.1.13,2013-05-11 04:16:00,
2013-05-11 00:22:00,74.4,70.3,30.06,WNW,286,0.0,0.0,87,0.00,,,0.00,Wunderground v.1.13,2013-05-11 04:22:00,
2013-05-11 00:28:00,74.3,70.2,30.06,WNW,286,0.0,0.0,87,0.00,,,0.00,Wunderground v.1.13,2013-05-11 04:28:00,
2013-05-11 00:34:00,74.5,70.7,30.05,WNW,286,0.0,0.0,88,0.00,,,0.00,Wunderground v.1.13,2013-05-11 04:34:00,
2013-05-11 00:40:00,74.8,71.0,30.05,WNW,286,0.0,0.0,88,0.00,,,0.00,Wunderground v.1.13,2013-05-11 04:40:00,
2013-05-11 00:46:00,74.9,71.1,30.06,WNW,286,0.0,0.0,88,0.00,,,0.00,Wunderground v.1.13,2013-05-11 04:46:00,
2013-05-11 00:52:00,75.0,71.2,30.06,WNW,286,0.0,0.0,88,0.00,,,0.00,Wunderground v.1.13,2013-05-11 04:52:00,
2013-05-11 00:58:00,75.0,71.2,30.06,WNW,286,0.0,0.0,88,0.00,,,0.00,Wunderground v.1.13,2013-05-11 04:58:00,
2013-05-11 01:04:00,74.8,71.0,30.05,WNW,286,0.0,0.0,88,0.00,,,0.00,Wunderground v.1.13,2013-05-11 05:04:00,
2013-05-11 01:10:00,74.7,71.2,30.05,WNW,286,0.0,0.0,89,0.00,,,0.00,Wunderground v.1.13,2013-05-11 05:10:00,
2013-05-11 01:16:00,74.6,71.1,30.05,WNW,286,0.0,0.0,89,0.00,,,0.00,Wunderground v.1.13,2013-05-11 05:16:00,
2013-05-11 01:22:00,74.4,70.9,30.05,WNW,286,0.0,0.0,89,0.00,,,0.00,Wunderground v.1.13,2013-05-11 05:22:00,
2013-05-11 01:28:00,74.1,70.6,30.05,WNW,286,0.0,0.0,89,0.00,,,0.00,Wunderground v.1.13,2013-05-11 05:28:00,
2013-05-11 01:34:00,74.0,70.6,30.05,WNW,286,0.0,0.0,89,0.00,,,0.00,Wunderground v.1.13,2013-05-11 05:34:00,
2013-05-11 01:40:00,73.7,70.3,30.05,WNW,286,0.0,0.0,89,0.00,,,0.00,Wunderground v.1.13,2013-05-11 05:40:00,
2013-05-11 01:46:00,73.6,70.5,30.05,WNW,286,0.0,0.0,90,0.00,,,0.00,Wunderground v.1.13,2013-05-11 05:46:00,
2013-05-11 01:52:00,73.6,70.5,30.05,WNW,286,0.0,0.0,90,0.00,,,0.00,Wunderground v.1.13,2013-05-11 05:52:00,
2013-05-11 01:58:00,73.7,70.9,30.05,WNW,286,0.0,0.0,91,0.00,,,0.00,Wunderground v.1.13,2013-05-11 05:58:00,
2013-05-11 02:04:00,73.9,71.1,30.05,WNW,286,0.0,0.0,91,0.00,,,0.00,Wunderground v.1.13,2013-05-11 06:04:00,
2013-05-11 02:10:00,73.9,71.1,30.05,WNW,286,0.0,0.0,91,0.00,,,0.00,Wunderground v.1.13,2013-05-11 06:10:00,
2013-05-11 02:16:00,74.0,71.2,30.05,WNW,286,0.0,0.0,91,0.00,,,0.00,Wunderground v.1.13,2013-05-11 06:16:00,
2013-05-11 02:22:00,74.2,71.4,30.05,WNW,286,0.0,0.0,91,0.00,,,0.00,Wunderground v.1.13,2013-05-11 06:22:00,
2013-05-11 02:28:00,74.3,71.5,30.05,WNW,286,0.0,0.0,91,0.00,,,0.00,Wunderground v.1.13,2013-05-11 06:28:00,
2013-05-11 02:34:00,74.3,71.5,30.05,WNW,286,0.0,0.0,91,0.00,,,0.00,Wunderground v.1.13,2013-05-11 06:34:00,
2013-05-11 02:40:00,74.4,71.6,30.04,WNW,286,0.0,0.0,91,0.00,,,0.00,Wunderground v.1.13,2013-05-11 06:40:00,
2013-05-11 02:46:00,74.5,71.7,30.04,WNW,286,0.0,0.0,91,0.00,,,0.00,Wunderground v.1.13,2013-05-11 06:46:00,
2013-05-11 02:52:00,74.5,71.7,30.04,WNW,286,0.0,0.0,91,0.00,,,0.00,Wunderground v.1.13,2013-05-11 06:52:00,
2013-05-11 02:58:00,74.5,71.4,30.04,WNW,286,0.0,0.0,90,0.00,,,0.00,Wunderground v.1.13,2013-05-11 06:58:00,
2013-05-11 03:04:00,74.5,71.7,30.03,WNW,286,0.0,0.0,91,0.00,,,0.00,Wunderground v.1.13,2013-05-11 07:04:00,
2013-05-11 03:10:00,74.5,71.7,30.03,WNW,286,0.0,0.0,91,0.00,,,0.00,Wunderground v.1.13,2013-05-11 07:10:00,
2013-05-11 03:16:00,74.5,71.7,30.03,WNW,286,0.0,0.0,91,0.00,,,0.00,Wunderground v.1.13,2013-05-11 07:16:00,
2013-05-11 03:22:00,74.4,71.6,30.02,WNW,286,0.0,0.0,91,0.00,,,0.00,Wunderground v.1.13,2013-05-11 07:22:00,
2013-05-11 03:28:00,74.4,71.6,30.01,WNW,286,0.0,0.0,91,0.00,,,0.00,Wunderground v.1.13,2013-05-11 07:28:00,
2013-05-11 03:34:00,74.4,71.6,30.01,WNW,286,0.0,0.0,91,0.00,,,0.00,Wunderground v.1.13,2013-05-11 07:34:00,
2013-05-11 03:40:00,74.4,71.6,30.00,WNW,286,0.0,0.0,91,0.00,,,0.00,Wunderground v.1.13,2013-05-11 07:40:00,
2013-05-11 03:46:00,74.4,71.6,30.00,WNW,286,0.0,0.0,91,0.00,,,0.00,Wunderground v.1.13,2013-05-11 07:46:00,
2013-05-11 03:52:00,74.3,71.5,30.00,WNW,286,0.0,0.0,91,0.00,,,0.00,Wunderground v.1.13,2013-05-11 07:52:00,
2013-05-11 03:58:00,74.3,71.5,30.00,WNW,286,0.0,0.0,91,0.00,,,0.00,Wunderground v.1.13,2013-05-11 07:58:00,
2013-05-11 04:04:00,74.2,71.4,30.00,WNW,286,0.0,0.0,91,0.00,,,0.00,Wunderground v.1.13,2013-05-11 08:04:00,
2013-05-11 04:10:00,74.1,71.3,30.00,WNW,286,0.0,0.0,91,0.00,,,0.00,Wunderground v.1.13,2013-05-11 08:10:00,
2013-05-11 04:16:00,73.9,71.1,30.00,WNW,286,0.0,0.0,91,0.00,,,0.00,Wunderground v.1.13,2013-05-11 08:16:00,
2013-05-11 04:22:00,73.7,70.9,30.00,WNW,286,0.0,0.0,91,0.00,,,0.00,Wunderground v.1.13,2013-05-11 08:22:00,
2013-05-11 04:28:00,73.6,70.8,30.00,WNW,286,0.0,0.0,91,0.00,,,0.00,Wunderground v.1.13,2013-05-11 08:28:00,
2013-05-11 04:34:00,73.4,70.6,30.00,WNW,286,0.0,0.0,91,0.00,,,0.00,Wunderground v.1.13,2013-05-11 08:34:00,
2013-05-11 04:40:00,73.4,70.9,30.00,WNW,286,0.0,0.0,92,0.00,,,0.00,Wunderground v.1.13,2013-05-11 08:40:00,
2013-05-11 04:46:00,73.4,70.9,30.00,WNW,286,0.0,0.0,92,0.00,,,0.00,Wunderground v.1.13,2013-05-11 08:46:00,
2013-05-11 04:52:00,73.3,70.8,30.01,WNW,286,0.0,0.0,92,0.00,,,0.00,Wunderground v.1.13,2013-05-11 08:52:00,
2013-05-11 04:58:00,73.2,70.7,30.01,WNW,286,0.0,0.0,92,0.00,,,0.00,Wunderground v.1.13,2013-05-11 08:58:00,
2013-05-11 05:04:00,73.0,70.5,30.01,WNW,286,0.0,0.0,92,0.00,,,0.00,Wunderground v.1.13,2013-05-11 09:04:00,
2013-05-11 05:10:00,72.9,70.4,30.01,WNW,286,0.0,0.0,92,0.00,,,0.00,Wunderground v.1.13,2013-05-11 09:10:00,
2013-05-11 05:16:00,72.8,70.3,30.01,WNW,286,0.0,0.0,92,0.00,,,0.00,Wunderground v.1.13,2013-05-11 09:16:00,
2013-05-11 05:22:00,72.8,70.3,30.01,WNW,286,0.0,0.0,92,0.00,,,0.00,Wunderground v.1.13,2013-05-11 09:22:00,
2013-05-11 05:28:00,72.7,70.2,30.01,WNW,286,0.0,0.0,92,0.00,,,0.00,Wunderground v.1.13,2013-05-11 09:28:00,
2013-05-11 05:34:00,72.7,70.2,30.01,WNW,286,0.0,0.0,92,0.00,,,0.00,Wunderground v.1.13,2013-05-11 09:34:00,
2013-05-11 05:40:00,72.7,70.6,30.01,WNW,286,0.0,0.0,93,0.00,,,0.00,Wunderground v.1.13,2013-05-11 09:40:00,
2013-05-11 05:46:00,72.8,70.7,30.01,WNW,286,0.0,0.0,93,0.00,,,0.00,Wunderground v.1.13,2013-05-11 09:46:00,
2013-05-11 05:52:00,73.1,71.0,30.01,WNW,286,0.0,0.0,93,0.00,,,0.00,Wunderground v.1.13,2013-05-11 09:52:00,
2013-05-11 05:58:00,73.1,71.0,30.02,WNW,286,0.0,0.0,93,0.00,,,0.00,Wunderground v.1.13,2013-05-11 09:58:00,
2013-05-11 06:04:00,73.4,71.3,30.01,WNW,286,0.0,0.0,93,0.00,,,0.00,Wunderground v.1.13,2013-05-11 10:04:00,
2013-05-11 06:10:00,73.6,71.8,30.02,WNW,286,0.0,0.0,94,0.00,,,0.00,Wunderground v.1.13,2013-05-11 10:10:00,
2013-05-11 06:16:00,73.8,72.0,30.02,WNW,286,0.0,0.0,94,0.00,,,0.00,Wunderground v.1.13,2013-05-11 10:16:00,
2013-05-11 06:22:00,73.9,71.7,30.01,WNW,286,0.0,0.0,93,0.00,,,0.00,Wunderground v.1.13,2013-05-11 10:22:00,
2013-05-11 06:28:00,74.0,71.8,30.02,WNW,286,0.0,0.0,93,0.00,,,0.00,Wunderground v.1.13,2013-05-11 10:28:00,
2013-05-11 06:34:00,74.0,71.8,30.02,SSE,162,0.0,0.0,93,0.00,,,0.00,Wunderground v.1.13,2013-05-11 10:34:00,
2013-05-11 06:40:00,73.9,72.1,30.02,SSE,162,0.0,0.0,94,0.00,,,0.00,Wunderground v.1.13,2013-05-11 10:40:00,
2013-05-11 06:46:00,74.0,72.2,30.02,SSE,160,0.0,1.0,94,0.00,,,0.00,Wunderground v.1.13,2013-05-11 10:46:00,
2013-05-11 06:52:00,74.0,72.2,30.03,SSE,163,0.0,4.0,94,0.00,,,0.00,Wunderground v.1.13,2013-05-11 10:52:00,
2013-05-11 06:58:00,74.0,72.2,30.02,SSE,161,0.0,0.0,94,0.00,,,0.00,Wunderground v.1.13,2013-05-11 10:58:00,
2013-05-11 07:04:00,74.0,72.2,30.02,SSE,161,0.0,0.0,94,0.00,,,0.00,Wunderground v.1.13,2013-05-11 11:04:00,
2013-05-11 07:10:00,74.0,72.2,30.03,SE,132,0.0,0.0,94,0.00,,,0.00,Wunderground v.1.13,2013-05-11 11:10:00,
2013-05-11 07:16:00,73.9,72.1,30.03,SSE,152,0.0,6.0,94,0.00,,,0.00,Wunderground v.1.13,2013-05-11 11:16:00,
2013-05-11 07:22:00,73.9,72.1,30.04,SSE,153,0.0,6.0,94,0.00,,,0.00,Wunderground v.1.13,2013-05-11 11:22:00,
2013-05-11 07:28:00,73.9,72.1,30.04,SSE,153,0.0,6.0,94,0.00,,,0.00,Wunderground v.1.13,2013-05-11 11:28:00,
2013-05-11 07:34:00,74.0,72.2,30.04,SSE,153,0.0,6.0,94,0.00,,,0.00,Wunderground v.1.13,2013-05-11 11:34:00,
2013-05-11 07:40:00,74.0,72.2,30.04,SSE,153,0.0,6.0,94,0.00,,,0.00,Wunderground v.1.13,2013-05-11 11:40:00,
2013-05-11 07:46:00,74.0,72.2,30.03,SSE,153,0.0,6.0,94,0.00,,,0.00,Wunderground v.1.13,2013-05-11 11:46:00,
2013-05-11 07:52:00,74.1,72.3,30.04,SSE,153,0.0,6.0,94,0.00,,,0.00,Wunderground v.1.13,2013-05-11 11:52:00,
2013-05-11 07:58:00,74.1,72.3,30.04,SSE,155,0.0,6.0,94,0.00,,,0.00,Wunderground v.1.13,2013-05-11 11:58:00,
2013-05-11 08:04:00,74.2,72.4,30.04,SSE,157,0.0,6.0,94,0.00,,,0.00,Wunderground v.1.13,2013-05-11 12:04:00,
2013-05-11 08:10:00,74.4,72.6,30.03,South,178,0.0,0.0,94,0.00,,,0.00,Wunderground v.1.13,2013-05-11 12:10:00,
2013-05-11 08:16:00,74.5,72.3,30.03,South,178,0.0,0.0,93,0.00,,,0.00,Wunderground v.1.13,2013-05-11 12:16:00,
2013-05-11 08:22:00,74.6,72.4,30.04,SSE,156,0.0,0.0,93,0.00,,,0.00,Wunderground v.1.13,2013-05-11 12:22:00,
2013-05-11 08:28:00,74.9,72.7,30.04,South,173,0.0,0.0,93,0.00,,,0.00,Wunderground v.1.13,2013-05-11 12:28:00,
2013-05-11 08:34:00,75.2,73.0,30.04,South,169,0.0,0.0,93,0.00,,,0.00,Wunderground v.1.13,2013-05-11 12:34:00,
2013-05-11 08:40:00,75.5,73.0,30.04,SSE,167,0.0,0.0,92,0.00,,,0.00,Wunderground v.1.13,2013-05-11 12:40:00,
2013-05-11 08:46:00,75.8,73.3,30.04,SSE,167,0.0,0.0,92,0.00,,,0.00,Wunderground v.1.13,2013-05-11 12:46:00,
2013-05-11 08:52:00,76.4,73.6,30.04,SSW,199,0.0,0.0,91,0.00,,,0.00,Wunderground v.1.13,2013-05-11 12:52:00,
2013-05-11 08:58:00,76.7,73.2,30.04,SSW,202,1.0,7.0,89,0.00,,,0.00,Wunderground v.1.13,2013-05-11 12:58:00,
2013-05-11 09:04:00,76.9,73.4,30.04,SSW,193,1.0,1.0,89,0.00,,,0.00,Wunderground v.1.13,2013-05-11 13:04:00,
2013-05-11 09:10:00,77.4,73.6,30.04,SSW,196,0.0,1.0,88,0.00,,,0.00,Wunderground v.1.13,2013-05-11 13:10:00,
2013-05-11 09:16:00,77.6,73.4,30.05,SSW,196,0.0,2.0,87,0.00,,,0.00,Wunderground v.1.13,2013-05-11 13:16:00,
2013-05-11 09:22:00,77.8,73.3,30.05,SSW,194,0.0,2.0,86,0.00,,,0.00,Wunderground v.1.13,2013-05-11 13:22:00,
2013-05-11 09:28:00,78.0,73.1,30.05,SSW,194,0.0,2.0,85,0.00,,,0.00,Wunderground v.1.13,2013-05-11 13:28:00,
2013-05-11 09:34:00,78.0,73.1,30.05,SSW,203,0.0,2.0,85,0.00,,,0.00,Wunderground v.1.13,2013-05-11 13:34:00,
2013-05-11 09:40:00,78.6,73.4,30.05,South,184,0.0,2.0,84,0.00,,,0.00,Wunderground v.1.13,2013-05-11 13:40:00,
2013-05-11 09:46:00,79.1,73.5,30.05,South,169,0.0,2.0,83,0.00,,,0.00,Wunderground v.1.13,2013-05-11 13:46:00,
2013-05-11 09:52:00,79.4,73.1,30.05,SW,236,0.0,2.0,81,0.00,,,0.00,Wunderground v.1.13,2013-05-11 13:52:00,
2013-05-11 09:58:00,79.4,73.4,30.05,SW,236,0.0,2.0,82,0.00,,,0.00,Wunderground v.1.13,2013-05-11 13:58:00,
2013-05-11 10:04:00,80.0,73.6,30.05,WSW,250,1.0,2.0,81,0.00,,,0.00,Wunderground v.1.13,2013-05-11 14:04:00,
2013-05-11 10:10:00,80.0,73.3,30.05,SW,236,0.0,1.0,80,0.00,,,0.00,Wunderground v.1.13,2013-05-11 14:10:00,
2013-05-11 10:16:00,79.9,73.2,30.05,SW,234,1.0,8.0,80,0.00,,,0.00,Wunderground v.1.13,2013-05-11 14:16:00,
2013-05-11 10:22:00,80.7,73.6,30.05,South,176,1.0,1.0,79,0.00,,,0.00,Wunderground v.1.13,2013-05-11 14:22:00,
2013-05-11 10:28:00,81.4,73.5,30.05,SW,225,1.0,1.0,77,0.00,,,0.00,Wunderground v.1.13,2013-05-11 14:28:00,
2013-05-11 10:34:00,82.0,74.1,30.05,SW,221,1.0,1.0,77,0.00,,,0.00,Wunderground v.1.13,2013-05-11 14:34:00,
2013-05-11 10:40:00,81.3,73.4,30.05,SW,220,0.0,1.0,77,0.00,,,0.00,Wunderground v.1.13,2013-05-11 14:40:00,
2013-05-11 10:46:00,81.6,73.3,30.05,SSW,200,1.0,6.0,76,0.00,,,0.00,Wunderground v.1.13,2013-05-11 14:46:00,
2013-05-11 10:52:00,81.8,73.1,30.05,SW,218,2.0,5.0,75,0.00,,,0.00,Wunderground v.1.13,2013-05-11 14:52:00,
2013-05-11 10:58:00,82.2,73.9,30.05,West,259,1.0,3.0,76,0.00,,,0.00,Wunderground v.1.13,2013-05-11 14:58:00,
2013-05-11 11:04:00,82.5,73.8,30.05,SW,236,2.0,3.0,75,0.00,,,0.00,Wunderground v.1.13,2013-05-11 15:04:00,
2013-05-11 11:10:00,82.0,73.7,30.05,South,180,2.0,4.0,76,0.00,,,0.00,Wunderground v.1.13,2013-05-11 15:10:00,
2013-05-11 11:16:00,82.3,73.2,30.05,South,187,5.0,11.0,74,0.00,,,0.00,Wunderground v.1.13,2013-05-11 15:16:00,
2013-05-11 11:22:00,82.9,73.8,30.04,SSW,192,4.0,11.0,74,0.00,,,0.00,Wunderground v.1.13,2013-05-11 15:22:00,
2013-05-11 11:28:00,83.1,73.5,30.05,South,191,3.0,11.0,73,0.00,,,0.00,Wunderground v.1.13,2013-05-11 15:28:00,
2013-05-11 11:34:00,83.3,74.1,30.04,SSW,203,5.0,11.0,74,0.00,,,0.00,Wunderground v.1.13,2013-05-11 15:34:00,
2013-05-11 11:40:00,83.4,74.6,30.04,SW,222,2.0,11.0,75,0.00,,,0.00,Wunderground v.1.13,2013-05-11 15:40:00,
2013-05-11 11:46:00,83.6,73.6,30.04,SSW,211,1.0,11.0,72,0.00,,,0.00,Wunderground v.1.13,2013-05-11 15:46:00,
2013-05-11 11:52:00,83.3,73.7,30.04,SSW,199,5.0,10.0,73,0.00,,,0.00,Wunderground v.1.13,2013-05-11 15:52:00,
2013-05-11 11:58:00,83.4,73.8,30.04,South,190,5.0,11.0,73,0.00,,,0.00,Wunderground v.1.13,2013-05-11 15:58:00,
2013-05-11 12:04:00,84.0,74.0,30.04,South,172,2.0,11.0,72,0.00,,,0.00,Wunderground v.1.13,2013-05-11 16:04:00,
2013-05-11 12:10:00,84.3,73.9,30.05,SW,223,3.0,8.0,71,0.00,,,0.00,Wunderground v.1.13,2013-05-11 16:10:00,
2013-05-11 12:16:00,84.3,73.9,30.05,SSW,210,1.0,16.0,71,0.00,,,0.00,Wunderground v.1.13,2013-05-11 16:16:00,
2013-05-11 12:22:00,84.4,73.1,30.05,WSW,244,3.0,16.0,69,0.00,,,0.00,Wunderground v.1.13,2013-05-11 16:22:00,
2013-05-11 12:28:00,83.3,73.3,30.05,SW,232,6.0,16.0,72,0.00,,,0.00,Wunderground v.1.13,2013-05-11 16:28:00,
2013-05-11 12:34:00,83.6,72.3,30.05,SSW,210,4.0,16.0,69,0.00,,,0.00,Wunderground v.1.13,2013-05-11 16:34:00,
2013-05-11 12:40:00,84.7,72.1,30.04,SW,215,1.0,10.0,66,0.00,,,0.00,Wunderground v.1.13,2013-05-11 16:40:00,
2013-05-11 12:46:00,85.1,71.5,30.04,SSW,202,3.0,16.0,64,0.00,,,0.00,Wunderground v.1.13,2013-05-11 16:46:00,
2013-05-11 12:52:00,85.3,70.3,30.04,SSW,207,5.0,16.0,61,0.00,,,0.00,Wunderground v.1.13,2013-05-11 16:52:00,
2013-05-11 12:58:00,85.1,69.7,30.04,SW,230,3.0,16.0,60,0.00,,,0.00,Wunderground v.1.13,2013-05-11 16:58:00,
2013-05-11 13:04:00,84.6,70.1,30.03,SW,223,3.0,16.0,62,0.00,,,0.00,Wunderground v.1.13,2013-05-11 17:04:00,
2013-05-11 13:10:00,85.0,70.5,30.03,SSW,196,6.0,6.0,62,0.00,,,0.00,Wunderground v.1.13,2013-05-11 17:10:00,
2013-05-11 13:16:00,85.9,69.9,30.03,SSW,202,2.0,14.0,59,0.00,,,0.00,Wunderground v.1.13,2013-05-11 17:16:00,
2013-05-11 13:22:00,86.6,71.5,30.03,SSW,210,2.0,14.0,61,0.00,,,0.00,Wunderground v.1.13,2013-05-11 17:22:00,
2013-05-11 13:28:00,86.4,71.4,30.03,SSW,195,2.0,14.0,61,0.00,,,0.00,Wunderground v.1.13,2013-05-11 17:28:00,
2013-05-11 13:34:00,85.9,69.9,30.03,SW,223,2.0,14.0,59,0.00,,,0.00,Wunderground v.1.13,2013-05-11 17:34:00,
2013-05-11 13:40:00,86.4,70.9,30.03,South,184,3.0,14.0,60,0.00,,,0.00,Wunderground v.1.13,2013-05-11 17:40:00,
2013-05-11 13:46:00,86.5,72.4,30.03,WSW,244,4.0,14.0,63,0.00,,,0.00,Wunderground v.1.13,2013-05-11 17:46:00,
2013-05-11 13:52:00,86.7,72.6,30.03,SSW,213,2.0,14.0,63,0.00,,,0.00,Wunderground v.1.13,2013-05-11 17:52:00,
2013-05-11 13:58:00,86.4,72.8,30.03,SSW,194,2.0,14.0,64,0.00,,,0.00,Wunderground v.1.13,2013-05-11 17:58:00,
2013-05-11 14:04:00,85.7,72.6,30.03,WSW,239,2.0,14.0,65,0.00,,,0.00,Wunderground v.1.13,2013-05-11 18:04:00,
2013-05-11 14:10:00,85.7,73.0,30.03,West,259,1.0,1.0,66,0.00,,,0.00,Wunderground v.1.13,2013-05-11 18:10:00,
2013-05-11 14:16:00,86.5,72.4,30.02,SSW,199,2.0,11.0,63,0.00,,,0.00,Wunderground v.1.13,2013-05-11 18:16:00,
2013-05-11 14:22:00,86.6,73.9,30.02,SSW,197,2.0,17.0,66,0.00,,,0.00,Wunderground v.1.13,2013-05-11 18:22:00,
2013-05-11 14:28:00,86.1,72.0,30.02,WSW,257,2.0,17.0,63,0.00,,,0.00,Wunderground v.1.13,2013-05-11 18:28:00,
2013-05-11 14:34:00,85.8,73.1,30.02,SW,222,3.0,17.0,66,0.00,,,0.00,Wunderground v.1.13,2013-05-11 18:34:00,
2013-05-11 14:40:00,85.8,72.7,30.02,WSW,252,1.0,17.0,65,0.00,,,0.00,Wunderground v.1.13,2013-05-11 18:40:00,
2013-05-11 14:46:00,85.4,73.2,30.02,WSW,246,1.0,17.0,67,0.00,,,0.00,Wunderground v.1.13,2013-05-11 18:46:00,
2013-05-11 14:52:00,85.7,73.0,30.01,SSW,203,2.0,17.0,66,0.00,,,0.00,Wunderground v.1.13,2013-05-11 18:52:00,
2013-05-11 14:58:00,85.7,73.5,30.01,SW,234,1.0,17.0,67,0.00,,,0.00,Wunderground v.1.13,2013-05-11 18:58:00,
2013-05-11 15:04:00,85.7,73.5,30.02,West,259,0.0,17.0,67,0.00,,,0.00,Wunderground v.1.13,2013-05-11 19:04:00,
2013-05-11 15:10:00,85.9,72.8,30.01,SSW,211,3.0,10.0,65,0.00,,,0.00,Wunderground v.1.13,2013-05-11 19:10:00,
2013-05-11 15:16:00,86.3,74.0,30.02,SW,226,3.0,5.0,67,0.00,,,0.00,Wunderground v.1.13,2013-05-11 19:16:00,
2013-05-11 15:22:00,85.3,73.5,30.02,SSW,196,1.0,14.0,68,0.00,,,0.00,Wunderground v.1.13,2013-05-11 19:22:00,
2013-05-11 15:28:00,85.2,74.7,30.02,SW,215,0.0,14.0,71,0.00,,,0.00,Wunderground v.1.13,2013-05-11 19:28:00,
2013-05-11 15:34:00,84.9,74.4,30.02,West,260,2.0,14.0,71,0.00,,,0.00,Wunderground v.1.13,2013-05-11 19:34:00,
2013-05-11 15:40:00,84.5,74.1,30.01,SSW,211,1.0,14.0,71,0.00,,,0.00,Wunderground v.1.13,2013-05-11 19:40:00,
2013-05-11 15:46:00,84.1,73.7,30.02,WSW,253,2.0,14.0,71,0.00,,,0.00,Wunderground v.1.13,2013-05-11 19:46:00,
2013-05-11 15:52:00,83.6,73.2,30.01,WSW,256,4.0,14.0,71,0.00,,,0.00,Wunderground v.1.13,2013-05-11 19:52:00,
2013-05-11 15:58:00,83.2,73.2,30.01,SW,217,2.0,10.0,72,0.00,,,0.00,Wunderground v.1.13,2013-05-11 19:58:00,
2013-05-11 16:04:00,82.8,73.3,30.01,SW,234,3.0,14.0,73,0.00,,,0.00,Wunderground v.1.13,2013-05-11 20:04:00,
2013-05-11 16:10:00,83.2,73.6,30.01,SW,225,1.0,4.0,73,0.00,,,0.00,Wunderground v.1.13,2013-05-11 20:10:00,
2013-05-11 16:16:00,82.9,73.4,30.01,WSW,257,4.0,14.0,73,0.00,,,0.00,Wunderground v.1.13,2013-05-11 20:16:00,
2013-05-11 16:22:00,83.3,74.1,30.00,SW,223,4.0,14.0,74,0.00,,,0.00,Wunderground v.1.13,2013-05-11 20:22:00,
2013-05-11 16:28:00,83.3,72.5,30.01,WSW,245,3.0,14.0,70,0.00,,,0.00,Wunderground v.1.13,2013-05-11 20:28:00,
2013-05-11 16:34:00,82.5,73.4,30.01,SW,226,6.0,14.0,74,0.00,,,0.00,Wunderground v.1.13,2013-05-11 20:34:00,
2013-05-11 16:40:00,82.0,73.7,30.01,SW,214,3.0,14.0,76,0.00,,,0.00,Wunderground v.1.13,2013-05-11 20:40:00,
2013-05-11 16:46:00,82.2,73.9,30.01,SW,230,1.0,14.0,76,0.00,,,0.00,Wunderground v.1.13,2013-05-11 20:46:00,
2013-05-11 16:52:00,81.9,74.0,30.01,WSW,253,1.0,14.0,77,0.00,,,0.00,Wunderground v.1.13,2013-05-11 20:52:00,
2013-05-11 16:58:00,81.5,73.6,30.01,WSW,256,1.0,14.0,77,0.00,,,0.00,Wunderground v.1.13,2013-05-11 20:58:00,
2013-05-11 17:04:00,81.4,73.9,30.01,SW,219,1.0,14.0,78,0.00,,,0.00,Wunderground v.1.13,2013-05-11 21:04:00,
2013-05-11 17:10:00,81.4,74.6,30.01,SW,222,0.0,1.0,80,0.00,,,0.00,Wunderground v.1.13,2013-05-11 21:10:00,
2013-05-11 17:16:00,81.1,74.0,30.01,SW,215,0.0,7.0,79,0.00,,,0.00,Wunderground v.1.13,2013-05-11 21:16:00,
2013-05-11 17:22:00,81.1,74.0,30.01,SW,219,2.0,11.0,79,0.00,,,0.00,Wunderground v.1.13,2013-05-11 21:22:00,
2013-05-11 17:28:00,81.0,74.2,30.01,West,260,0.0,11.0,80,0.00,,,0.00,Wunderground v.1.13,2013-05-11 21:28:00,
2013-05-11 17:34:00,80.9,74.1,30.01,WSW,241,0.0,11.0,80,0.00,,,0.00,Wunderground v.1.13,2013-05-11 21:34:00,
2013-05-11 17:40:00,80.8,74.4,30.01,WSW,253,0.0,11.0,81,0.00,,,0.00,Wunderground v.1.13,2013-05-11 21:40:00,
2013-05-11 17:46:00,80.7,74.7,30.01,SW,236,0.0,11.0,82,0.00,,,0.00,Wunderground v.1.13,2013-05-11 21:46:00,
2013-05-11 17:52:00,80.2,74.2,30.01,WSW,242,0.0,11.0,82,0.00,,,0.00,Wunderground v.1.13,2013-05-11 21:52:00,
2013-05-11 17:58:00,80.1,74.5,30.01,West,276,0.0,11.0,83,0.00,,,0.00,Wunderground v.1.13,2013-05-11 21:58:00,
2013-05-11 18:04:00,79.8,74.2,30.01,WSW,257,0.0,11.0,83,0.00,,,0.00,Wunderground v.1.13,2013-05-11 22:04:00,
2013-05-11 18:10:00,80.0,74.4,30.01,WSW,253,0.0,0.0,83,0.00,,,0.00,Wunderground v.1.13,2013-05-11 22:10:00,
2013-05-11 18:16:00,80.0,74.0,30.01,West,276,1.0,9.0,82,0.00,,,0.00,Wunderground v.1.13,2013-05-11 22:16:00,
2013-05-11 18:22:00,80.0,74.4,30.01,WSW,250,1.0,9.0,83,0.00,,,0.00,Wunderground v.1.13,2013-05-11 22:22:00,
2013-05-11 18:28:00,79.6,74.0,30.00,WSW,254,1.0,4.0,83,0.00,,,0.00,Wunderground v.1.13,2013-05-11 22:28:00,
2013-05-11 18:34:00,79.5,73.9,30.00,West,273,1.0,9.0,83,0.00,,,0.00,Wunderground v.1.13,2013-05-11 22:34:00,
2013-05-11 18:40:00,79.6,74.0,30.01,WSW,255,1.0,9.0,83,0.00,,,0.00,Wunderground v.1.13,2013-05-11 22:40:00,
2013-05-11 18:46:00,79.7,74.1,30.01,West,261,2.0,9.0,83,0.00,,,0.00,Wunderground v.1.13,2013-05-11 22:46:00,
2013-05-11 18:52:00,79.8,74.5,30.00,West,263,2.0,9.0,84,0.00,,,0.00,Wunderground v.1.13,2013-05-11 22:52:00,
2013-05-11 18:58:00,79.7,74.1,30.00,West,281,2.0,9.0,83,0.00,,,0.00,Wunderground v.1.13,2013-05-11 22:58:00,
2013-05-11 19:04:00,79.7,74.1,30.00,WNW,296,1.0,9.0,83,0.00,,,0.00,Wunderground v.1.13,2013-05-11 23:04:00,
2013-05-11 19:10:00,79.6,74.0,30.00,West,263,0.0,1.0,83,0.00,,,0.00,Wunderground v.1.13,2013-05-11 23:10:00,
2013-05-11 19:16:00,79.3,74.0,30.01,NW,311,0.0,12.0,84,0.00,,,0.00,Wunderground v.1.13,2013-05-11 23:16:00,
2013-05-11 19:22:00,79.2,73.6,30.01,WNW,299,1.0,12.0,83,0.00,,,0.00,Wunderground v.1.13,2013-05-11 23:22:00,
2013-05-11 19:28:00,77.9,70.5,30.02,NW,319,5.0,12.0,78,0.00,,,0.00,Wunderground v.1.13,2013-05-11 23:28:00,
2013-05-11 19:34:00,76.5,69.9,30.02,NW,319,6.0,12.0,80,0.00,,,0.00,Wunderground v.1.13,2013-05-11 23:34:00,
2013-05-11 19:40:00,76.1,69.5,30.02,NNW,333,3.0,12.0,80,0.00,,,0.00,Wunderground v.1.13,2013-05-11 23:40:00,
2013-05-11 19:46:00,75.8,69.6,30.02,NNW,338,5.0,12.0,81,0.00,,,0.00,Wunderground v.1.13,2013-05-11 23:46:00,
2013-05-11 19:52:00,75.5,69.6,30.02,NW,315,2.0,12.0,82,0.00,,,0.00,Wunderground v.1.13,2013-05-11 23:52:00,
2013-05-11 19:58:00,75.0,69.8,30.02,NW,311,1.0,12.0,84,0.00,,,0.00,Wunderground v.1.13,2013-05-11 23:58:00,
2013-05-11 20:04:00,74.7,69.5,30.02,NW,321,0.0,12.0,84,0.00,,,0.00,Wunderground v.1.13,2013-05-12 00:04:00,
2013-05-11 20:10:00,74.2,69.4,30.02,NNW,327,0.0,0.0,85,0.00,,,0.00,Wunderground v.1.13,2013-05-12 00:10:00,
2013-05-11 20:16:00,74.0,69.2,30.02,North,360,0.0,15.0,85,0.00,,,0.00,Wunderground v.1.13,2013-05-12 00:16:00,
2013-05-11 20:22:00,73.8,69.3,30.02,NNW,336,0.0,15.0,86,0.00,,,0.00,Wunderground v.1.13,2013-05-12 00:22:00,
2013-05-11 20:28:00,73.7,69.2,30.01,NNW,341,0.0,15.0,86,0.00,,,0.00,Wunderground v.1.13,2013-05-12 00:28:00,
2013-05-11 20:34:00,73.6,68.8,30.02,NNW,341,0.0,15.0,85,0.00,,,0.00,Wunderground v.1.13,2013-05-12 00:34:00,
2013-05-11 20:40:00,73.5,69.1,30.02,NNW,342,0.0,15.0,86,0.00,,,0.00,Wunderground v.1.13,2013-05-12 00:40:00,
2013-05-11 20:46:00,73.5,69.1,30.02,NNW,342,0.0,15.0,86,0.00,,,0.00,Wunderground v.1.13,2013-05-12 00:46:00,
2013-05-11 20:52:00,73.5,69.1,30.02,NNW,342,0.0,15.0,86,0.00,,,0.00,Wunderground v.1.13,2013-05-12 00:52:00,
2013-05-11 20:58:00,73.4,69.0,30.03,NNW,342,0.0,15.0,86,0.00,,,0.00,Wunderground v.1.13,2013-05-12 00:58:00,
2013-05-11 21:04:00,73.3,68.9,30.03,NNW,341,0.0,15.0,86,0.00,,,0.00,Wunderground v.1.13,2013-05-12 01:04:00,
2013-05-11 21:10:00,73.3,68.5,30.02,NNW,342,0.0,0.0,85,0.00,,,0.00,Wunderground v.1.13,2013-05-12 01:10:00,
2013-05-11 21:16:00,73.3,68.5,30.02,NNW,342,0.0,0.0,85,0.00,,,0.00,Wunderground v.1.13,2013-05-12 01:16:00,
2013-05-11 21:22:00,73.3,68.5,30.02,NNW,342,0.0,0.0,85,0.00,,,0.00,Wunderground v.1.13,2013-05-12 01:22:00,
2013-05-11 21:28:00,73.3,68.2,30.02,NNW,342,0.0,0.0,84,0.00,,,0.00,Wunderground v.1.13,2013-05-12 01:28:00,
2013-05-11 21:34:00,73.4,68.3,30.01,NNW,341,0.0,0.0,84,0.00,,,0.00,Wunderground v.1.13,2013-05-12 01:34:00,
2013-05-11 21:40:00,73.6,68.5,30.02,NNW,342,0.0,0.0,84,0.00,,,0.00,Wunderground v.1.13,2013-05-12 01:40:00,
2013-05-11 21:46:00,73.7,68.6,30.01,NNW,341,0.0,0.0,84,0.00,,,0.00,Wunderground v.1.13,2013-05-12 01:46:00,
2013-05-11 21:52:00,73.8,68.7,30.02,NNW,342,0.0,0.0,84,0.00,,,0.00,Wunderground v.1.13,2013-05-12 01:52:00,
2013-05-11 21:58:00,73.9,68.8,30.02,NNW,341,0.0,0.0,84,0.00,,,0.00,Wunderground v.1.13,2013-05-12 01:58:00,
2013-05-11 22:04:00,73.9,68.8,30.02,NNW,342,0.0,0.0,84,0.00,,,0.00,Wunderground v.1.13,2013-05-12 02:04:00,
2013-05-11 22:10:00,73.9,68.8,30.02,NNW,342,0.0,0.0,84,0.00,,,0.00,Wunderground v.1.13,2013-05-12 02:10:00,
2013-05-11 22:16:00,74.0,68.9,30.02,NNW,342,0.0,0.0,84,0.00,,,0.00,Wunderground v.1.13,2013-05-12 02:16:00,
2013-05-11 22:22:00,73.9,68.8,30.03,NNW,341,0.0,0.0,84,0.00,,,0.00,Wunderground v.1.13,2013-05-12 02:22:00,
2013-05-11 22:28:00,73.9,68.8,30.03,NNW,342,0.0,0.0,84,0.00,,,0.00,Wunderground v.1.13,2013-05-12 02:28:00,
2013-05-11 22:34:00,73.9,68.8,30.02,NNW,341,0.0,0.0,84,0.00,,,0.00,Wunderground v.1.13,2013-05-12 02:34:00,
2013-05-11 22:40:00,73.9,68.8,30.03,NNW,342,0.0,0.0,84,0.00,,,0.00,Wunderground v.1.13,2013-05-12 02:40:00,
2013-05-11 22:46:00,73.9,68.8,30.02,NNW,341,0.0,0.0,84,0.00,,,0.00,Wunderground v.1.13,2013-05-12 02:46:00,
2013-05-11 22:52:00,73.8,68.7,30.03,NNW,342,0.0,0.0,84,0.00,,,0.00,Wunderground v.1.13,2013-05-12 02:52:00,
2013-05-11 22:58:00,73.8,68.7,30.03,NNW,342,0.0,0.0,84,0.00,,,0.00,Wunderground v.1.13,2013-05-12 02:58:00,
2013-05-11 23:04:00,73.8,68.7,30.03,NNW,342,0.0,0.0,84,0.00,,,0.00,Wunderground v.1.13,2013-05-12 03:04:00,
2013-05-11 23:10:00,73.8,68.7,30.03,NNW,342,0.0,0.0,84,0.00,,,0.00,Wunderground v.1.13,2013-05-12 03:10:00,
2013-05-11 23:16:00,73.8,68.7,30.03,NNW,342,0.0,1.0,84,0.00,,,0.00,Wunderground v.1.13,2013-05-12 03:16:00,
2013-05-11 23:22:00,73.8,68.7,30.03,NNW,342,0.0,1.0,84,0.00,,,0.00,Wunderground v.1.13,2013-05-12 03:22:00,
2013-05-11 23:28:00,73.7,68.6,30.03,NNW,342,0.0,1.0,84,0.00,,,0.00,Wunderground v.1.13,2013-05-12 03:28:00,
2013-05-11 23:34:00,73.7,68.6,30.03,NNW,342,0.0,1.0,84,0.00,,,0.00,Wunderground v.1.13,2013-05-12 03:34:00,
2013-05-11 23:40:00,73.5,68.7,30.04,NNW,342,0.0,1.0,85,0.00,,,0.00,Wunderground v.1.13,2013-05-12 03:40:00,
2013-05-11 23:46:00,73.5,68.7,30.04,NNW,342,0.0,1.0,85,0.00,,,0.00,Wunderground v.1.13,2013-05-12 03:46:00,
2013-05-11 23:52:00,73.4,69.0,30.04,NNW,342,0.0,1.0,86,0.00,,,0.00,Wunderground v.1.13,2013-05-12 03:52:00,
2013-05-11 23:58:00,73.3,68.9,30.04,NNW,342,0.0,1.0,86,0.00,,,0.00,Wunderground v.1.13,2013-05-12 03:58:00,